Regional Weather Roundup
Issued by NWS Goodland, KS

Home | Current Version | Previous Version | Graphics & Text | Print | Product List | Glossary On
Versions: 1 2 3 4 5 6 7 8 9 10 11 12 13 14 15 16 17 18 19 20 21 22 23 24 25 26 27 28 29 30 31 32 33 34 35 36 37 38 39 40 41 42 43 44 45 46 47 48 49 50
000
ASUS43 KGLD 100559
RWRGLD

GOODLAND FORECAST AREA HOURLY WEATHER ROUNDUP
NATIONAL WEATHER SERVICE GOODLAND KS
1100 PM MST FRI DEC 09 2016

...OFFICIAL OBSERVATIONS...

CITY           SKY/WX    TMP DP  RH WIND       PRES   REMARKS
GOODLAND KS    CLOUDY    23  19  85 S13       30.18S WCI  11
HILL CITY KS   CLOUDY    20  12  71 SE6       30.34S
IMPERIAL NEB   CLOUDY    19  13  77 SE10      30.21F WCI   7
MCCOOK NEB     CLOUDY    14  10  84 NE6       30.30R
AKRON CO       CLOUDY    20  15  81 SE7       30.12F
BURLINGTON CO  CLOUDY    24  18  77 S12       30.16R WCI  13
LIMON CO       CLOUDY    15  13  91 N5        30.12R
$$

...UNOFFICIAL OBSERVATIONS...

CITY           SKY/WX    TMP DP  RH WIND       PRES   REMARKS
COLBY KS       CLEAR     19  19 100 SE6       30.23F
LENORA KS        N/A     19  32 100 MISG        N/A
NORTON KS      MOCLDY    19  10  68 SE6       30.31S
SHARON SPRINGS   N/A     22  19  86 SE13        N/A  WCI  10
TRENTON NEB      N/A     15  32 100 E5          N/A
KIT CARSON CO    N/A     22  16  76 CALM        N/A
YUMA CO        MOCLDY    21  18  86 CALM      30.16F
$$




USA.gov is the U.S. government's official web portal to all federal, state and local government web resources and services.